Broadus, MT

6:53 PM MDT on October 24, 2014 (GMT -0600)
Hulett | Change Station
CLOSE
Current Station
Airport
Location: Hulett,
Elevation: 4265 ft
Nearby Weather Stations

Elev 4265 ft 44.66 °N, 104.57 °W | Updated 18 minutes ago

Partly Cloudy
Partly Cloudy
54 °F
Feels Like 54 °F
N
6
Wind Variable Wind from NE

Today
High -- | Low -- °F
--% Chance of Precip.
Yesterday
High -- | Low -- °F
Precip. -- in
7:30 AM 6:00 PM
New Moon, 1% visible
Pressure 30.12 in
Visibility 10.0 miles
Clouds Mostly Cloudy 11000 ft
Dew Point 32 °F
Humidity 44%
Rainfall 0.00 in
Snow Depth Not available.
UV 0 out of 12
Pollen 1.80 out of 12
Air Quality Not available.
Flu Activity No Activity
METAR KW43 250035Z AUTO 05005KT 10SM BKN110 12/00 A3012 RMK AO2

More Conditions Fewer Conditions

Pressure 30.12 in
Visibility 10.0 miles
Clouds Mostly Cloudy 11000 ft
Dew Point 32 °F
Humidity 44%
Rainfall 0.00 in
Snow Depth Not available.
UV 0 out of 12
Pollen 1.80 out of 12
Air Quality Not available.
Flu Activity No Activity
METAR KW43 250035Z AUTO 05005KT 10SM BKN110 12/00 A3012 RMK AO2

More Conditions Fewer Conditions

10-Day Weather Forecast

Almanac

Astronomy

Oct. 24, 2014 Rise Set
Actual Time 7:30 AM MDT 6:00 PM MDT
Civil Twilight 6:59 AM MDT 6:31 PM MDT
Nautical Twilight 6:25 AM MDT 7:05 PM MDT
Astronomical Twilight 5:50 AM MDT 7:39 PM MDT
Moon 8:13 AM MDT (10/24) 6:40 PM MDT (10/24)
Length of Visible Light 11h 31m
Length of Day
10h 30m
Tomorrow will be 2m 59s shorter.
New Moon, 1% of the Moon is Illuminated
Today
New Moon
Oct 30
First Quarter
Nov 6
Full
Nov 14
Last Quarter
Nov 22
New

Today's Extremes

State Highs State Lows

Community

WunderPhotos

Upload Photos

1,764,735 photos uploaded!

WunderBlogs® & News

Nearby

Snow Depth

Station Depth Elevation
Crystal Lake 1 in 6050 ft
Fisher Creek 1 in 9100 ft
Northeast Entrance 0 in 7350 ft
Monument Peak 0 in 8850 ft
Box Canyon 0 in 6700 ft

Earthquake Activity

City Distance Mag. Time & Date
No recent earthquake activity has been reported nearby.
Minimum magnitude displayed is 2.5.

Coastal Water Temperatures

Place Temperature
No Stations Reporting

Nearby Weather Stations